Flag for Norway Weather past 2 weeks in Stange, Norway

Now
24 °F

Cold.


Feels Like: 16 °F
Forecast: 19 / 28 °F
Wind: 7 mph from North

Location: Haugedalshogda

Current Time: Feb 1, 2015 at 9:01:39 AM

Latest Report: Feb 1, 2015 at 8:00 AM


Visibility: N/A

Pressure: 29.06 "Hg

Humidity: 84%

Dew point: 20 °F

Location of StangeLocation

Historic Weather in Stange — Graph

°F

Stange temperature yesterday

Maximum temperature yesterday: 29 °F (at 3:00 PM)
Minimum temperature yesterday: 26 °F (at 9:00 AM)
Average temperature yesterday: 28 °F

Past Weeks' High & Low Weather Summary

 TemperatureHumidityPressure
High34 °F (Jan 28, 2:00 PM)96% (Jan 24, 11:00 PM)30.37 "Hg (Jan 24, 11:00 PM)
Low-7 °F (Jan 23, 10:00 AM)77% (Jan 17, 12:00 PM)28.47 "Hg (Jan 29, 6:00 AM)
Average22 °F92%29.69 "Hg
* Reported Jan 17 7:00 AM — Feb 1 7:00 AM, Stange, Weather by CustomWeather, © 2014

Note: Actual official high and low records may vary slightly from our data, if they occured in-between our weather recording intervals... More about our weather records

Advertising

Stange weather history for previous 24 hours

 ConditionsComfort  
Time TempWeatherWind HumidityBarometerVisibility
7:00 AM
Feb 1
24 °FCold.7 mph86%29.06 "HgN/A
6:00 AM24 °FCold.8 mph87%29.06 "HgN/A
5:00 AM24 °FCold.8 mph87%29.06 "HgN/A
4:00 AM25 °FCold.8 mph88%29.06 "HgN/A
3:00 AM25 °FChilly.8 mph85%29.06 "HgN/A
2:00 AM25 °FChilly.8 mph84%29.06 "HgN/A
1:00 AM25 °FChilly.8 mph88%29.06 "HgN/A
12:00 AM26 °FChilly.7 mph86%29.09 "HgN/A
11:00 PM
Jan 31
26 °FChilly.5 mph85%29.09 "HgN/A
10:00 PM27 °FChilly.5 mph84%29.09 "HgN/A
9:00 PM27 °FChilly.6 mph84%29.09 "HgN/A
8:00 PM27 °FChilly.6 mph85%29.09 "HgN/A
7:00 PM27 °FChilly.6 mph85%29.09 "HgN/A
6:00 PM28 °FChilly.6 mph84%29.09 "HgN/A
5:00 PM28 °FChilly.6 mph85%29.06 "HgN/A
4:00 PM28 °FChilly.6 mph86%29.06 "HgN/A
3:00 PM29 °FChilly.6 mph86%29.06 "HgN/A
2:00 PM29 °FChilly.6 mph86%29.06 "HgN/A
1:00 PM29 °FChilly.6 mph86%29.06 "HgN/A
12:00 PM28 °FChilly.6 mph87%29.06 "HgN/A
11:00 AM28 °FChilly.5 mph88%29.06 "HgN/A
10:00 AM27 °FChilly.5 mph91%29.06 "HgN/A
9:00 AM26 °FChilly.3 mph91%29.06 "HgN/A
Weather by CustomWeather, © 2014

See weather overviewHow to use our weather pages